Weather History for LFSX - February, 2014

Change the Weather History Date:

Thursday, February 27, 2014

  Actual Average Record
Temperature  
Mean Temperature 42 °F -  
Max Temperature 48 °F 50 °F 57 °F (2003)
Min Temperature 37 °F 33 °F 21 °F (2001)
Degree Days  
Heating Degree Days 22    
Moisture  
Dew Point 37 °F    
Average Humidity 82    
Maximum Humidity 100    
Minimum Humidity 50    
Precipitation  
Precipitation 0.12 in - - ()
Sea Level Pressure  
Sea Level Pressure 30.08 in    
Wind  
Wind Speed 5 mph ()    
Max Wind Speed 17 mph    
Max Gust Speed -    
Visibility 4.6 miles    
Events Fog , Rain    
Averages and records for this station are not official NWS values.
T = Trace of Precipitation, MM = Missing Value Source: Averaged Metar Reports

Daily Weather History Graph

Daily Weather History Graph

Search for Another Location

Airport or City:

Trip Planner

Search our weather history database for the weather conditions in past years. The results will help you decide how hot, cold, wet, or windy it might be!

Date:

Astronomy

Feb. 27, 2014 Rise Set
Actual Time 7:19 AM CET 6:15 PM CET
Civil Twilight 6:48 AM CET 6:46 PM CET
Nautical Twilight 6:12 AM CET 7:22 PM CET
Astronomical Twilight 5:36 AM CET 7:58 PM CET
Moon 5:46 AM CET (2/27) 4:17 PM CET (2/27)
Length of Visible Light 11h 58m
Length of Day
10h 56m
Waning Crescent, 5% of the Moon is Illuminated
Feb 27
Waning Crescent
Mar 1
New
Mar 8
First Quarter
Mar 16
Full
Mar 24
Last Quarter

Hourly Weather History & Observations

Time (CET) Temp. Windchill Dew Point Humidity Pressure Visibility Wind Dir Wind Speed Gust Speed Precip Events Conditions
12:00 AM 39 °F - 38 °F 94% 30.22 in 0 mi ENE 1.2 mph - - Fog Partial Fog
12:00 AM 39.2 °F - 37.4 °F 93% 30.18 in - Calm Calm - N/A Fog Fog
12:30 AM 39.2 °F - 37.4 °F 93% 30.18 in 0.5 mi East 1.2 mph - N/A Fog Fog
1:00 AM 39 °F - 38 °F 95% 30.23 in 0 mi Calm Calm - - Fog Partial Fog
1:00 AM 39.2 °F - 37.4 °F 93% 30.18 in - Calm Calm - N/A Fog Fog
1:30 AM 39.2 °F - 39.2 °F 100% 30.18 in 0.2 mi Calm Calm - N/A Fog Fog
2:00 AM 40 °F - 38 °F 91% 30.24 in 1 mi NE 1.2 mph - -   Mist
2:00 AM 39.2 °F - 39.2 °F 100% 30.18 in 0.7 mi NE 1.2 mph - N/A   Mist
2:30 AM 39.2 °F - 37.4 °F 93% 30.18 in 0.2 mi East 1.2 mph - N/A Fog Fog
3:00 AM 39 °F - 37 °F 90% 30.23 in 0 mi East 2.3 mph - - Fog Partial Fog
3:00 AM 39.2 °F - 37.4 °F 93% 30.18 in 0.2 mi East 2.3 mph - N/A Fog Fog
3:30 AM 39.2 °F 37.0 °F 37.4 °F 93% 30.18 in 1.2 mi ENE 3.5 mph - N/A   Overcast
4:00 AM 38 °F - 37 °F 93% 30.23 in 1 mi East 3.5 mph - -   Mist
4:00 AM 37.4 °F 34.9 °F 37.4 °F 100% 30.18 in 0.7 mi East 3.5 mph - N/A   Overcast
4:30 AM 39.2 °F 35.9 °F 37.4 °F 93% 30.18 in 1.0 mi ESE 4.6 mph - N/A   Mostly Cloudy
5:00 AM 38 °F - 37 °F 97% 30.22 in 2 mi East 3.5 mph - -   Mist
5:00 AM 39.2 °F 37.0 °F 37.4 °F 93% 30.18 in 2.2 mi East 3.5 mph - N/A   Overcast
5:30 AM 39.2 °F 37.0 °F 37.4 °F 93% 30.18 in - ESE 3.5 mph - N/A   Overcast
6:00 AM 39 °F - 38 °F 92% 30.22 in 3 mi ESE 3.5 mph - -   Mist
6:00 AM 39.2 °F 37.0 °F 37.4 °F 93% 30.18 in 3.1 mi ESE 3.5 mph - N/A   Overcast
6:30 AM 39.2 °F 37.0 °F 37.4 °F 93% 30.18 in - ESE 3.5 mph - N/A   Overcast
7:00 AM 39 °F - 37 °F 91% 30.21 in 3 mi East 3.5 mph - -   Clear
7:00 AM 39.2 °F 37.0 °F 37.4 °F 93% 30.15 in 3.1 mi East 3.5 mph - N/A   Overcast
7:30 AM 39.2 °F - 37.4 °F 93% 30.15 in 4.3 mi East 2.3 mph - N/A   Overcast
8:00 AM 40 °F - 37 °F 86% 30.21 in 6 mi SSE 1.2 mph - -   Clear
8:00 AM 39.2 °F - 37.4 °F 93% 30.15 in 6.2 mi Variable 1.2 mph - N/A   Mostly Cloudy
8:30 AM 39.2 °F 37.0 °F 37.4 °F 93% 30.15 in 6.2 mi South 3.5 mph - N/A   Mostly Cloudy
9:00 AM 40 °F - 37 °F 83% 30.20 in 8 mi SSE 4.6 mph - -   Clear
9:00 AM 41.0 °F 38.0 °F 37.4 °F 87% 30.15 in 6.2 mi SSE 4.6 mph - N/A   Overcast
9:30 AM 41.0 °F 38.0 °F 37.4 °F 87% 30.15 in 6.2 mi South 4.6 mph - N/A   Overcast
10:00 AM 42 °F - 37 °F 78% 30.17 in 12 mi South 3.5 mph - -   Clear
10:00 AM 42.8 °F 41.1 °F 37.4 °F 81% 30.12 in 6.2 mi South 3.5 mph - N/A   Overcast
10:30 AM 42.8 °F 41.1 °F 37.4 °F 81% 30.12 in 6.2 mi SSE 3.5 mph - N/A   Overcast
11:00 AM 46 °F - 38 °F 65% 30.13 in 31 mi South 4.6 mph - -   Clear
11:00 AM 46.4 °F 44.3 °F 37.4 °F 71% 30.09 in 6.2 mi South 4.6 mph - N/A   Mostly Cloudy
11:30 AM 46.4 °F 42.4 °F 39.2 °F 76% 30.09 in 6.2 mi SSW 8.1 mph - N/A   Mostly Cloudy
12:00 PM 46 °F - 38 °F 63% 30.10 in 34 mi SSW 8.1 mph - -   Clear
12:00 PM 46.4 °F 42.4 °F 37.4 °F 71% 30.06 in 6.2 mi SSW 8.1 mph - N/A   Mostly Cloudy
12:30 PM 46.4 °F 42.4 °F 37.4 °F 71% 30.06 in 6.2 mi SSW 8.1 mph - N/A   Overcast
1:00 PM 48 °F - 38 °F 58% 30.05 in 12 mi SSW 11.5 mph - -   Clear
1:00 PM 48.2 °F - 37.4 °F 66% 30.04 in 6.2 mi SSW 11.5 mph - N/A   Overcast
1:30 PM 48.2 °F - 35.6 °F 62% 30.01 in 6.2 mi SSW 8.1 mph - N/A   Overcast
2:00 PM 47 °F - 35 °F 53% 30.02 in 34 mi SSW 10.4 mph - -   Clear
2:00 PM 48.2 °F - 35.6 °F 62% 30.01 in 6.2 mi SSW 10.4 mph - N/A   Mostly Cloudy
2:30 PM 46.4 °F 41.5 °F 35.6 °F 66% 29.98 in 6.2 mi SSW 10.4 mph - N/A   Unknown
3:00 PM 47 °F - 35 °F 53% 30.00 in 37 mi SSW 9.2 mph - -   Clear
3:00 PM 46.4 °F 41.9 °F 35.6 °F 66% 29.98 in 6.2 mi SSW 9.2 mph - N/A   Unknown
3:30 PM 46.4 °F 41.9 °F 35.6 °F 66% 29.95 in 6.2 mi South 9.2 mph - N/A   Unknown
4:00 PM 46 °F - 33 °F 50% 29.97 in 37 mi South 11.5 mph - -   Clear
4:00 PM 46.4 °F 41.1 °F 33.8 °F 62% 29.95 in 6.2 mi South 11.5 mph - N/A   Unknown
4:30 PM 46.4 °F 41.1 °F 32.0 °F 57% 29.95 in 6.2 mi SSW 11.5 mph - N/A   Overcast
5:00 PM 43 °F - 35 °F 65% 29.97 in 7 mi WSW 17.3 mph - - Rain Light Rain
5:00 PM 42.8 °F 34.8 °F 35.6 °F 76% 29.95 in 6.2 mi WSW 17.3 mph - N/A Rain Light Rain
5:30 PM 41.0 °F 32.8 °F 35.6 °F 81% 29.95 in 3.7 mi SW 16.1 mph - N/A Rain Rain
6:00 PM 39 °F - 35 °F 82% 29.99 in 4 mi SSW 15.0 mph - - Rain Rain
6:00 PM 39.2 °F 30.8 °F 35.6 °F 87% 29.95 in 4.3 mi SSW 15.0 mph - N/A Rain Rain
6:30 PM 39.2 °F 32.0 °F 35.6 °F 87% 29.95 in 6.2 mi SSW 11.5 mph - N/A Rain Rain
7:00 PM 38 °F - 35 °F 84% 29.98 in 8 mi South 6.9 mph - - Rain Light Rain
7:00 PM 39.2 °F 34.2 °F 35.6 °F 87% 29.95 in 6.2 mi South 6.9 mph - N/A Rain Light Rain
7:30 PM 39.2 °F 33.6 °F 35.6 °F 87% 29.95 in 3.7 mi South 8.1 mph - N/A Rain Light Rain
8:00 PM 39 °F - 36 °F 86% 29.98 in 4 mi SSW 11.5 mph - - Rain Light Rain
8:00 PM 39.2 °F 32.0 °F 35.6 °F 87% 29.92 in 3.7 mi SSW 11.5 mph - N/A Rain Light Rain
8:30 PM 39.2 °F 31.2 °F 37.4 °F 93% 29.92 in 6.2 mi SW 13.8 mph - N/A   Overcast
9:00 PM 41 °F - 37 °F 80% 29.96 in 31 mi SW 13.8 mph - -   Clear
9:00 PM 41.0 °F 33.5 °F 37.4 °F 87% 29.92 in 6.2 mi SW 13.8 mph - N/A   Overcast
9:30 PM 41.0 °F 33.5 °F 37.4 °F 87% 29.92 in 6.2 mi SW 13.8 mph - N/A   Overcast
10:00 PM 42 °F - 38 °F 79% 29.97 in 34 mi WSW 12.7 mph - -   Clear
10:00 PM 41.0 °F 33.9 °F 37.4 °F 87% 29.92 in 6.2 mi WSW 12.7 mph - N/A   Overcast
10:30 PM 41.0 °F 34.3 °F 37.4 °F 87% 29.92 in 6.2 mi WSW 11.5 mph - N/A   Overcast
11:00 PM 41 °F - 37 °F 81% 29.98 in 37 mi SW 11.5 mph - -   Clear
11:00 PM 41.0 °F 34.3 °F 37.4 °F 87% 29.95 in 6.2 mi SW 11.5 mph - N/A   Overcast
11:30 PM 41.0 °F 34.3 °F 37.4 °F 87% 29.95 in 6.2 mi SW 11.5 mph - N/A   Overcast